User: anonymous   Login
Location: Unspecified
(0.0000°N, 0.0000°E)
Time: 23:03:03
(UTC+00:00)
Language:

STARLINK-30993 - Orbit

View from above orbital plane
View from above orbital plane
View from above satellite
View from above satellite

Ground track
Ground track

The orbit is defined by the following mean orbital elements,

1 58489U          26144.85257250 +.00000000 +00000-0 +18588-4 0 00002
2 58489  43.0041 353.5812 0002025 274.7901  85.2720 15.27575243    09
Epoch (UTC): 24 May 2026 20:27:42
Eccentricity: 0.0002025
inclination: 43.0041°
perigee height: 482 km
apogee height: 484 km
right ascension of ascending node: 353.5812°
argument of perigee: 274.7901°
revolutions per day: 15.27575243
mean anomaly at epoch: 85.2720°

The dashed part of the orbit path shows where the satellite is in the earth's shadow,  

DLR